アトラス彗星

C/2019 T3 ( ATLAS )

English version
Home page
Updated on February 19, 2020

---------------------------------------------------------------------

・ プロフィール

発見日 2019年10月6日
発見光度 18.9等
発見者 Asteroid Terrestrial-Impact Last Alert System (ATLAS) search program

・ 写真集

・ 軌道要素

Epoch 2021 Mar. 7.0 TT = JDT 2459280.5
T 2021 Mar. 2.70488 TT                                  Bell
q   5.9464412            (2000.0)            P               Q
z  +0.0002830      Peri.  112.27756     +0.60546016     +0.57395687
 +/-0.0000098      Node   139.52082     -0.19751635     -0.56272926
e   0.9983172      Incl.  121.86226     +0.77097684     -0.59490276
From 150 observations 2019 Jan. 17-2020 Feb. 3, mean residual 0".4.

・ 光度変化

        m1 = -2.8 + 5 logΔ + 20.0 log r

---------------------------------------------------------------------

軌道要素はM.P.E.C. 2020-C98に掲載されたものです。
光度グラフはComet for Windowsで作成したものです。

---------------------------------------------------------------------

Copyright(C) Seiichi Yoshida (comet@aerith.net). All rights reserved.